Погода в Ришикеше

Индия     30°02′51″N   78°14′02″E
темп.,
°C
ветер,
м/с
пор.,
м/с
влажн.,
%
обл.,
%
осадки,
мм/ч
давл.,
гПа
погр.,
м
26 февраля, пт
пт2623:30+19всв22280 0.0 101225
02:30+16св22330 0.0 101133
05:30+16св22290 0.0 101044
08:30+20всв22240 0.0 1010117
11:30+29зюз35140 0.0 10091163
14:30+33зсз79100 0.0 10063009
17:30+29зсз410150 0.0 1006710
20:30+21всв22220 0.0 100925
27 февраля, сб
сб2723:30+21всв33230 0.0 101044
02:30+19всв232820 0.0 100954
05:30+18всв222919 0.0 100829
08:30+22всв22270 0.0 1010115
11:30+30юз341615 0.0 10101454
14:30+31з58160 0.0 10083394
17:30+28зюз122413 0.0 100725
20:30+23св122695 0.0 101124
28 февраля, вс
вс2823:30+21св222979 0.0 101224
02:30+18св333916 0.0 101244
05:30+16всв33468 0.0 101254
08:30+20всв23380 0.0 1013145
11:30+31юз22120 0.0 10122152
14:30+31з5490 0.0 10092649
17:30+27з26170 0.0 1009197
20:30+21св33210 0.0 101334
1 марта, пн
пн123:30+20всв34190 0.0 101490
02:30+19св342022 0.0 1013115
05:30+18всв342216 0.0 1013102
08:30+21всв342138 0.0 1014167
11:30+29ююз351719 0.0 10131348
14:30+31ю46110 0.0 10103333
17:30+27юз37160 0.0 1011390
20:30+20всв22230 0.0 101423
2 марта, вт
вт223:30+18св22260 0.0 101533
02:30+17св33360 0.0 101446
05:30+16всв23360 0.0 101447
08:30+20св23280 0.0 1015141
11:30+31з22140 0.0 10141664
14:30+32зюз44110 0.0 10112090
17:30+28з25160 0.0 1011175
20:30+20св22230 0.0 101426